• în România
  • Lista ţărilor
  • Pe 7 zile
  • Temperatura apei
  • Hartă satelitară
  • Meteo pe hartă
  • Widget-uri
  • user-avatar
    Intrare

    Meteo pe oră la Schelkino

    Astăzi, 25 Aprilie, Miercuri

    Timp Temperatura Precipitaţii Vânt Presiune Umiditate
    00:00 +6°C° 0 mm 2 m/s 737 mmHg 94%
    01:00 +6°C° 0 mm 2 m/s 737 mmHg 95%
    02:00 +5°C° 0 mm 2 m/s 737 mmHg 95%
    03:00 +5°C° 0 mm 2 m/s 737 mmHg 94%
    04:00 +5°C° 0 mm 2 m/s 737 mmHg 93%
    05:00 +5°C° 0 mm 2 m/s 736 mmHg 92%
    06:00 +5°C° 0,2 mm 3 m/s 736 mmHg 89%
    07:00 +7°C° 0,2 mm 3 m/s 736 mmHg 87%
    08:00 +7°C° 0,2 mm 4 m/s 736 mmHg 84%
    09:00 +7°C° 0,2 mm 4 m/s 736 mmHg 79%
    10:00 +8°C° 0,2 mm 4 m/s 736 mmHg 75%
    11:00 +9°C° 0,2 mm 5 m/s 736 mmHg 70%
    12:00 +10°C° 0,1 mm 5 m/s 736 mmHg 65%
    13:00 +10°C° 0,1 mm 5 m/s 736 mmHg 61%
    14:00 +12°C° 0,1 mm 5 m/s 735 mmHg 57%
    15:00 +12°C° 0 mm 5 m/s 735 mmHg 57%
    16:00 +11°C° 0 mm 4 m/s 735 mmHg 57%
    17:00 +11°C° 0 mm 4 m/s 735 mmHg 57%
    18:00 +10°C° 0 mm 3 m/s 735 mmHg 63%
    19:00 +8°C° 0 mm 2 m/s 735 mmHg 70%
    20:00 +7°C° 0 mm 2 m/s 735 mmHg 76%
    21:00 +7°C° 0,2 mm 2 m/s 734 mmHg 79%
    22:00 +7°C° 0,2 mm 2 m/s 733 mmHg 83%
    23:00 +7°C° 0,2 mm 2 m/s 733 mmHg 86%

    Mâine, 26 Aprilie, Joi

    Timp Temperatura Precipitaţii Vânt Presiune Umiditate
    00:00 +7°C° 0,8 mm 2 m/s 732 mmHg 89%
    01:00 +7°C° 0,8 mm 2 m/s 732 mmHg 92%
    02:00 +7°C° 0,8 mm 3 m/s 731 mmHg 94%
    03:00 +8°C° 0,3 mm 3 m/s 731 mmHg 93%
    04:00 +8°C° 0,3 mm 3 m/s 730 mmHg 92%
    05:00 +7°C° 0,3 mm 4 m/s 730 mmHg 91%
    06:00 +7°C° 0,2 mm 4 m/s 731 mmHg 89%
    07:00 +7°C° 0,2 mm 5 m/s 731 mmHg 87%
    08:00 +7°C° 0,2 mm 6 m/s 732 mmHg 86%
    09:00 +7°C° 0,1 mm 6 m/s 732 mmHg 83%
    10:00 +7°C° 0,1 mm 6 m/s 733 mmHg 80%
    11:00 +7°C° 0,1 mm 6 m/s 734 mmHg 77%
    12:00 +8°C° 0,1 mm 6 m/s 735 mmHg 72%
    13:00 +9°C° 0,1 mm 6 m/s 735 mmHg 67%
    14:00 +10°C° 0,1 mm 6 m/s 736 mmHg 62%
    15:00 +10°C° 0,2 mm 5 m/s 736 mmHg 62%
    16:00 +10°C° 0,2 mm 5 m/s 737 mmHg 62%
    17:00 +11°C° 0,2 mm 4 m/s 737 mmHg 62%
    18:00 +10°C° 0 mm 4 m/s 737 mmHg 68%
    19:00 +8°C° 0 mm 3 m/s 738 mmHg 75%
    20:00 +7°C° 0 mm 2 m/s 738 mmHg 82%
    21:00 +7°C° 0,3 mm 3 m/s 738 mmHg 83%
    22:00 +7°C° 0,3 mm 3 m/s 739 mmHg 85%
    23:00 +7°C° 0,3 mm 3 m/s 739 mmHg 87%

    Poimâine, 27 Aprilie, Vineri

    Timp Temperatura Precipitaţii Vânt Presiune Umiditate
    00:00 +5°C° 0 mm 3 m/s 739 mmHg 89%
    01:00 +4°C° 0 mm 3 m/s 739 mmHg 92%
    02:00 +5°C° 0 mm 2 m/s 740 mmHg 94%
    03:00 +4°C° 0 mm 2 m/s 740 mmHg 95%
    04:00 +4°C° 0 mm 2 m/s 740 mmHg 95%
    05:00 +4°C° 0 mm 2 m/s 741 mmHg 96%
    06:00 +4°C° 0 mm 3 m/s 741 mmHg 91%
    07:00 +5°C° 0 mm 3 m/s 741 mmHg 85%
    08:00 +7°C° 0 mm 3 m/s 742 mmHg 80%
    09:00 +9°C° 0 mm 3 m/s 742 mmHg 72%
    10:00 +10°C° 0 mm 3 m/s 742 mmHg 64%
    11:00 +11°C° 0 mm 3 m/s 742 mmHg 56%
    12:00 +12°C° 0,1 mm 4 m/s 742 mmHg 52%
    13:00 +13°C° 0,1 mm 4 m/s 742 mmHg 49%
    14:00 +14°C° 0,1 mm 4 m/s 742 mmHg 45%
    15:00 +13°C° 0,1 mm 3 m/s 742 mmHg 47%
    16:00 +13°C° 0,1 mm 3 m/s 742 mmHg 49%
    17:00 +13°C° 0,1 mm 3 m/s 742 mmHg 51%
    18:00 +12°C° 0,2 mm 2 m/s 742 mmHg 60%
    19:00 +9°C° 0,2 mm 2 m/s 742 mmHg 68%
    20:00 +8°C° 0,2 mm 1 m/s 743 mmHg 77%
    21:00 +7°C° 0,3 mm 2 m/s 743 mmHg 80%
    22:00 +7°C° 0,3 mm 2 m/s 743 mmHg 84%
    23:00 +6°C° 0,3 mm 2 m/s 744 mmHg 87%

    28 Aprilie, Sâmbătă

    Timp Temperatura Precipitaţii Vânt Presiune Umiditate
    00:00 +6°C° 0 mm 2 m/s 744 mmHg 90%
    01:00 +5°C° 0 mm 2 m/s 744 mmHg 92%
    02:00 +4°C° 0 mm 2 m/s 745 mmHg 94%
    03:00 +4°C° 0 mm 2 m/s 745 mmHg 95%
    04:00 +4°C° 0 mm 2 m/s 745 mmHg 96%
    05:00 +3°C° 0 mm 2 m/s 746 mmHg 97%
    06:00 +5°C° 0 mm 2 m/s 746 mmHg 90%
    07:00 +6°C° 0 mm 2 m/s 747 mmHg 82%
    08:00 +8°C° 0 mm 2 m/s 747 mmHg 75%
    09:00 +9°C° 0 mm 2 m/s 747 mmHg 68%
    10:00 +10°C° 0 mm 3 m/s 748 mmHg 62%
    11:00 +12°C° 0 mm 3 m/s 748 mmHg 55%
    12:00 +12°C° 0 mm 3 m/s 748 mmHg 50%
    13:00 +13°C° 0 mm 3 m/s 748 mmHg 46%
    14:00 +14°C° 0 mm 3 m/s 748 mmHg 41%
    15:00 +14°C° 0 mm 3 m/s 747 mmHg 42%
    16:00 +14°C° 0 mm 3 m/s 747 mmHg 42%
    17:00 +15°C° 0 mm 2 m/s 747 mmHg 42%
    18:00 +13°C° 0 mm 2 m/s 747 mmHg 49%
    19:00 +10°C° 0 mm 2 m/s 748 mmHg 56%
    20:00 +9°C° 0 mm 1 m/s 748 mmHg 63%
    21:00 +8°C° 0 mm 2 m/s 748 mmHg 66%
    22:00 +8°C° 0 mm 2 m/s 747 mmHg 68%
    23:00 +7°C° 0 mm 2 m/s 747 mmHg 70%

    29 Aprilie, Duminică

    Timp Temperatura Precipitaţii Vânt Presiune Umiditate
    00:00 +8°C° 0 mm 3 m/s 747 mmHg 69%
    01:00 +8°C° 0 mm 3 m/s 747 mmHg 69%
    02:00 +9°C° 0 mm 3 m/s 746 mmHg 68%
    03:00 +8°C° 0,1 mm 4 m/s 746 mmHg 70%
    04:00 +8°C° 0,1 mm 4 m/s 745 mmHg 71%
    05:00 +8°C° 0,1 mm 4 m/s 745 mmHg 73%
    06:00 +10°C° 0,3 mm 4 m/s 745 mmHg 77%
    07:00 +10°C° 0,3 mm 4 m/s 744 mmHg 80%
    08:00 +11°C° 0,3 mm 4 m/s 744 mmHg 84%
    09:00 +12°C° 0,1 mm 4 m/s 744 mmHg 80%
    10:00 +14°C° 0,1 mm 4 m/s 744 mmHg 76%
    11:00 +15°C° 0,1 mm 4 m/s 744 mmHg 72%
    12:00 +16°C° 0,1 mm 5 m/s 744 mmHg 65%
    13:00 +17°C° 0,1 mm 5 m/s 744 mmHg 58%
    14:00 +19°C° 0,1 mm 6 m/s 743 mmHg 51%
    15:00 +19°C° 0 mm 5 m/s 744 mmHg 49%
    16:00 +17°C° 0 mm 5 m/s 744 mmHg 47%
    17:00 +18°C° 0 mm 4 m/s 744 mmHg 45%
    18:00 +16°C° 0 mm 3 m/s 744 mmHg 53%
    19:00 +12°C° 0 mm 3 m/s 745 mmHg 62%
    20:00 +10°C° 0 mm 2 m/s 745 mmHg 71%
    21:00 +10°C° 0 mm 1 m/s 746 mmHg 75%
    22:00 +9°C° 0 mm 1 m/s 746 mmHg 80%
    23:00 +8°C° 0 mm 1 m/s 746 mmHg 84%

    30 Aprilie, Luni

    Timp Temperatura Precipitaţii Vânt Presiune Umiditate
    00:00 +8°C° 0 mm 1 m/s 747 mmHg 86%
    01:00 +6°C° 0 mm 0 m/s 747 mmHg 88%
    02:00 +6°C° 0 mm 0 m/s 747 mmHg 91%
    03:00 +6°C° 0 mm 0 m/s 747 mmHg 90%
    04:00 +6°C° 0 mm 0 m/s 747 mmHg 90%
    05:00 +6°C° 0 mm 0 m/s 748 mmHg 90%
    06:00 +9°C° 0 mm 1 m/s 748 mmHg 81%
    07:00 +11°C° 0 mm 1 m/s 748 mmHg 72%
    08:00 +13°C° 0 mm 1 m/s 748 mmHg 63%
    09:00 +15°C° 0 mm 1 m/s 748 mmHg 56%
    10:00 +18°C° 0 mm 1 m/s 748 mmHg 49%
    11:00 +20°C° 0 mm 1 m/s 748 mmHg 42%
    12:00 +21°C° 0 mm 1 m/s 747 mmHg 40%
    13:00 +22°C° 0 mm 1 m/s 747 mmHg 38%
    14:00 +22°C° 0 mm 1 m/s 747 mmHg 36%
    15:00 +21°C° 0 mm 2 m/s 746 mmHg 39%
    16:00 +21°C° 0 mm 2 m/s 746 mmHg 43%
    17:00 +21°C° 0 mm 2 m/s 745 mmHg 47%
    18:00 +19°C° 0 mm 2 m/s 745 mmHg 55%
    19:00 +18°C° 0 mm 2 m/s 745 mmHg 64%
    20:00 +16°C° 0 mm 2 m/s 745 mmHg 72%
    21:00 +15°C° 0,1 mm 2 m/s 745 mmHg 76%
    22:00 +14°C° 0,1 mm 3 m/s 745 mmHg 80%
    23:00 +13°C° 0,1 mm 3 m/s 744 mmHg 83%
    Arată mai mult